Theta_e
352 349 349 350 350 351 350 351 351 351 349 352 352 351 351 352 353 354 352 353 354 353 352 353 354 354 351 349 349 349 348 347 347 345 345 349 352 354 352 353 351 349 352
351 351 351 351 351 349 349 350 351 353 354 355 352 351 351 351 352 352 352 350 353 353 353 352 353 351 353 353 350 350 350 352 350 349 349 349 353 352 353 355 352 349 351
351 351 351 352 351 349 349 351 351 353 354 354 354 353 353 351 351 352 352 352 352 352 352 353 353 353 353 352 353 351 350 350 351 351 350 349 350 351 350 353 352 353 348
352 351 351 352 352 351 351 352 353 354 354 353 354 354 353 352 352 353 353 353 353 353 352 352 351 351 352 353 352 352 351 351 350 353 350 348 349 351 351 350 351 350 344
353 353 353 353 353 353 352 353 353 353 354 352 352 351 351 352 351 351 354 354 353 353 353 352 351 351 352 351 352 351 351 351 350 350 349 348 350 351 350 350 351 349 343
354 354 354 355 355 353 353 354 353 354 355 354 353 351 350 351 349 349 349 348 350 351 352 352 352 351 349 347 349 348 349 351 352 350 349 349 351 351 352 352 350 348 349
355 355 355 356 356 355 354 353 354 354 354 354 353 352 352 350 346 348 347 347 351 349 352 352 352 350 349 352 350 347 346 346 346 348 351 352 353 352 352 350 351 349 346
353 353 354 354 355 354 354 354 354 354 354 354 353 353 352 347 346 346 345 345 350 352 351 351 351 350 352 349 349 352 349 343 344 347 351 350 345 346 346 347 350 347 341
353 353 354 354 354 354 354 354 352 352 351 352 351 350 350 345 341 343 341 345 348 349 348 343 342 341 345 344 346 351 345 335 337 334 334 335 337 340 342 347 345 341 342
351 347 347 347 345 347 346 346 346 345 343 342 342 341 340 337 337 336 337 342 346 345 342 341 340 341 342 342 340 343 341 337 329 329 330 329 330 326 329 333 335 336 335
346 346 343 342 342 343 344 343 343 343 342 340 338 337 337 336 335 336 337 338 338 339 338 333 328 330 329 331 338 345 343 341 334 334 331 329 329 327 325 324 322 323 327
345 345 345 342 341 341 340 339 337 338 337 333 331 326 324 328 330 332 335 338 337 331 326 323 323 324 325 324 325 330 333 331 329 328 326 323 321 320 320 316 315 314 313
341 338 339 339 338 338 337 335 333 334 331 327 327 325 322 325 327 327 326 326 325 326 324 323 324 324 324 325 325 323 323 322 321 320 317 314 312 311 311 314 313 309 310
333 332 330 334 334 334 333 330 330 328 327 325 324 322 321 320 321 322 324 324 324 323 323 323 324 325 324 324 324 322 320 319 318 314 311 309 307 308 307 308 309 312 310
327 326 328 328 329 329 328 324 324 326 324 325 323 322 319 317 318 318 319 320 322 323 323 322 321 320 320 320 320 319 318 316 315 311 309 308 307 308 307 307 308 308 309
326 325 326 325 325 325 324 322 324 324 324 323 322 318 309 306 305 306 306 308 315 318 321 322 319 317 315 316 317 317 314 314 314 313 312 310 309 308 307 307 307 308 308
323 322 322 325 326 327 325 324 322 321 324 322 316 311 312 319 321 317 308 308 308 314 317 316 316 316 312 312 312 313 311 311 310 310 309 308 307 306 307 307 307 307 307
320 319 320 319 319 318 317 317 317 318 318 320 322 321 321 321 320 319 317 315 312 312 314 314 313 312 311 310 309 308 306 306 306 305 306 306 306 306 306 306 306 307 307
319 317 319 320 319 317 316 315 313 313 311 310 309 308 309 309 306 305 308 312 315 316 315 316 315 315 313 311 309 307 306 306 305 304 304 304 304 305 305 304 303 300 302
314 313 314 315 317 318 319 317 315 315 314 313 312 311 308 305 310 311 308 309 310 312 313 314 313 312 311 309 308 307 305 303 302 301 301 301 300 301 301 301 302 302 302
314 312 311 314 314 315 316 317 316 316 315 314 313 312 309 311 312 312 312 311 312 312 313 313 311 310 309 308 307 305 304 303 301 301 300 300 300 300 300 300 300 300 301
317 316 315 315 314 314 313 313 313 313 313 314 314 312 308 306 311 312 312 312 313 313 313 312 311 310 308 307 306 305 303 302 301 300 300 300 300 300 300 300 300 301 301
321 320 320 318 315 313 313 313 313 312 312 312 312 312 310 308 311 312 311 311 311 311 310 309 309 308 307 305 304 303 302 301 301 300 301 300 300 300 300 301 301 301 302
321 321 321 321 319 318 316 315 313 312 310 311 312 312 311 311 311 311 311 311 310 309 309 308 307 306 305 304 303 302 301 300 300 300 300 301 301 299 301 301 301 302 302
321 321 321 320 319 318 318 317 316 315 314 313 312 312 312 311 311 311 311 311 310 309 308 307 306 305 304 303 302 301 299 297 300 299 300 301 301 301 301 302 302 302 302
316 315 314 314 315 315 316 316 317 317 317 315 311 310 310 310 309 310 310 310 310 309 308 306 305 304 302 302 301 300 297 295 296 298 300 301 301 301 301 302 301 302 302
Wind_Speed
22 21 20 18 17 16 15 16 15 13 14 15 16 13 13 13 14 14 13 11 10 10 10 9 9 9 11 8 8 8 8 9 10 11 12 4 7 6 9 9 7 5 3
22 22 20 19 17 17 17 16 15 15 12 14 14 15 15 14 13 14 15 14 12 13 13 12 11 11 10 10 11 10 11 11 11 11 9 8 1 7 7 7 7 4 3
22 22 21 20 19 19 18 18 17 15 14 13 13 15 14 14 15 17 16 14 14 13 13 13 12 11 12 12 10 11 10 10 9 10 11 6 5 6 6 4 3 3 0
21 21 22 22 21 19 17 17 16 15 14 13 14 13 13 14 14 14 15 14 14 13 13 13 12 12 12 11 10 10 9 9 9 9 12 10 5 2 5 6 4 4 4
21 20 20 18 18 18 17 16 16 16 14 13 13 13 14 12 12 14 15 14 15 15 14 13 13 12 12 13 12 10 10 11 11 9 11 10 9 10 5 6 5 2 4
19 19 18 17 17 18 17 16 16 16 14 12 12 12 10 10 14 15 15 14 15 15 15 14 13 12 13 14 16 16 14 11 12 11 11 9 9 7 6 6 9 6 7
14 13 13 15 17 18 17 17 17 17 15 13 12 10 9 11 15 13 12 10 10 13 12 11 10 10 11 9 9 12 11 11 13 13 10 10 9 7 6 7 5 3 1
13 14 11 14 17 13 17 18 17 16 15 12 11 9 7 9 10 10 9 7 8 8 6 5 5 6 8 6 7 8 6 4 6 4 4 4 4 5 5 5 3 2 3
10 10 14 15 15 14 15 14 10 9 9 7 7 6 5 3 4 7 6 5 6 5 6 9 10 10 12 10 8 10 7 4 3 5 5 2 1 2 3 5 8 7 8
11 10 9 9 9 8 13 17 15 12 9 6 5 4 4 4 4 5 4 5 6 7 6 5 9 9 12 12 10 11 9 8 7 7 5 6 7 6 3 4 4 7 6
10 9 7 5 4 4 10 10 11 14 13 8 6 5 3 3 5 8 9 9 9 10 5 3 3 3 3 6 9 10 11 11 9 6 6 5 5 7 8 8 7 8 7
12 10 8 7 7 9 1 4 6 15 13 12 8 6 6 5 3 3 3 3 3 3 3 3 5 3 3 3 5 6 6 9 8 7 6 6 6 7 5 4 5 6 6
11 11 11 9 10 11 9 9 12 11 10 11 10 8 5 6 4 5 5 4 4 5 4 6 7 5 4 6 7 7 7 7 8 7 7 5 4 4 5 4 5 6 8
11 8 9 10 12 11 11 9 10 9 10 11 9 9 7 4 2 4 3 4 5 4 4 3 2 3 6 7 8 7 7 6 5 5 6 5 5 6 2 4 2 4 2
13 12 13 13 14 13 11 8 8 8 7 5 6 6 6 5 5 4 3 3 3 4 4 5 6 4 4 4 5 5 5 5 4 4 4 3 2 3 2 1 1 3 3
19 15 15 15 15 14 13 12 10 8 7 6 5 6 8 10 9 7 4 3 2 4 4 2 3 3 3 3 4 5 5 5 4 2 2 1 1 0 1 1 2 3 2
16 11 11 10 9 9 8 7 8 9 7 8 8 9 7 7 5 2 1 2 3 2 1 3 5 3 3 4 5 4 4 4 6 4 2 2 2 2 1 2 3 2 1
13 12 9 9 9 8 8 7 6 6 5 5 6 6 6 6 5 4 3 2 1 3 2 2 3 5 5 4 3 4 5 4 5 5 5 3 1 1 1 1 1 2 3
10 8 8 7 7 7 6 6 5 5 5 5 5 3 5 6 7 7 8 6 6 7 6 7 7 6 5 5 4 3 3 3 3 3 4 4 1 1 1 2 3 4 4
8 7 6 5 5 5 4 4 3 2 2 2 3 2 4 2 3 3 4 5 6 6 6 7 7 6 6 6 5 4 3 3 3 3 2 2 2 2 2 1 2 2 2
6 5 5 3 3 2 2 3 3 5 6 6 6 6 7 5 5 5 6 6 6 6 6 7 7 6 6 5 5 5 6 5 4 3 3 2 2 1 1 1 1 2 3
3 4 3 2 2 3 3 4 6 7 7 7 7 6 9 8 7 6 5 4 5 5 6 7 7 6 7 6 6 6 6 6 5 4 3 1 1 1 2 2 1 1 2
2 2 2 2 2 2 5 5 6 6 7 7 8 8 7 10 10 8 7 6 6 6 6 6 6 6 6 6 6 6 6 5 4 3 3 2 2 3 3 3 3 3 3
4 4 6 5 5 7 7 8 9 9 11 10 10 9 10 10 11 11 10 9 9 8 8 8 7 8 8 8 7 6 6 6 5 4 4 4 3 3 4 3 3 1 2
6 7 8 9 9 10 10 11 12 13 13 13 13 13 12 12 12 12 13 14 13 12 10 8 7 8 9 9 8 7 10 10 7 8 4 4 3 3 3 3 2 1 1
2 3 6 7 9 10 12 14 13 14 15 14 14 14 13 11 12 14 14 14 14 13 12 11 10 10 10 10 9 12 9 9 9 12 6 5 5 4 3 2 2 3 2
Wind_Direction
206 207 211 214 219 223 224 225 227 232 236 237 235 236 244 243 237 235 246 258 253 256 257 259 261 266 272 273 272 273 280 280 287 309 317 330 314 293 314 320 321 307 40
204 207 210 212 215 217 220 227 229 234 235 236 234 236 236 236 239 238 239 248 248 260 256 256 260 265 258 266 269 270 287 303 292 304 305 301 275 309 306 314 333 348 28
201 203 209 214 215 216 218 220 222 231 236 241 240 232 239 244 250 240 234 240 251 255 251 253 264 268 261 270 275 279 272 262 249 273 304 288 316 285 312 262 323 284 346
204 204 207 211 215 218 220 220 221 221 230 241 242 242 244 250 250 240 232 236 247 251 248 250 260 260 260 254 262 269 270 275 276 276 280 288 294 276 287 300 311 57 350
204 207 210 211 214 216 217 220 221 224 228 231 239 238 243 250 254 249 244 245 249 251 249 254 253 256 264 259 265 274 270 266 266 276 276 288 287 317 347 295 280 153 124
206 212 211 210 210 214 217 221 222 226 229 230 237 246 249 247 254 256 255 255 252 246 248 251 253 262 266 265 262 260 250 255 260 265 285 285 284 277 282 282 286 275 192
205 213 221 220 220 212 214 214 224 227 228 230 231 230 230 226 250 262 270 278 266 247 237 242 246 247 237 242 264 247 250 257 262 254 262 272 282 278 279 270 250 262 329
197 199 222 232 236 233 218 220 220 224 225 220 217 215 210 228 249 260 274 278 264 260 252 228 243 247 245 239 239 234 232 247 256 267 268 266 277 258 260 265 254 182 172
209 206 208 213 205 198 207 213 215 217 217 192 175 173 179 202 256 263 262 262 251 243 253 256 261 258 247 246 226 212 199 222 242 234 254 243 255 257 202 240 233 261 210
174 165 175 177 177 199 214 192 191 186 201 206 200 202 212 195 263 255 253 267 260 256 263 264 267 250 258 251 238 225 197 207 167 147 110 75 70 67 110 86 20 317 334
140 147 162 174 199 220 231 232 211 196 205 200 191 170 200 272 300 289 275 266 268 267 236 203 252 223 231 224 220 239 225 182 179 162 139 116 97 69 55 47 47 26 338
127 125 117 103 110 110 130 208 195 176 175 153 137 106 82 58 14 326 281 257 230 194 182 146 132 138 148 157 186 195 190 167 150 144 135 112 108 100 57 54 57 68 64
110 106 117 131 109 104 103 105 112 114 126 112 119 110 102 89 75 66 66 75 101 106 129 126 130 123 98 102 101 106 138 138 142 143 133 117 102 91 65 39 48 64 59
102 105 114 115 115 114 120 113 107 114 128 132 129 130 110 91 94 82 78 108 114 120 145 169 186 173 155 139 136 131 120 117 117 100 97 77 79 87 101 117 138 156 156
108 106 99 101 103 113 110 101 109 127 135 133 137 148 153 182 185 148 146 145 128 127 129 132 130 122 118 118 106 94 85 81 107 106 111 124 120 106 77 36 46 80 116
108 106 109 108 107 109 113 105 102 115 136 137 146 157 147 142 134 119 119 121 115 141 150 165 134 135 108 113 133 125 112 104 107 134 136 131 115 139 205 106 72 66 76
110 111 113 112 115 120 117 108 100 78 90 126 134 137 149 147 134 125 114 72 125 139 127 173 171 175 197 170 160 147 167 141 152 145 124 129 154 119 343 7 12 8 10
108 113 117 123 118 114 108 112 120 123 126 128 153 176 190 202 229 257 270 288 158 212 201 212 219 233 184 208 222 179 172 132 154 149 141 136 174 139 164 174 331 331 336
111 108 113 117 113 119 124 127 126 117 121 138 150 179 216 233 254 259 252 244 259 246 230 220 215 213 204 199 190 177 152 184 199 150 120 127 118 301 86 346 9 29 346
107 113 109 111 128 148 155 157 177 171 187 195 201 182 181 184 233 249 242 234 239 240 224 215 200 190 191 185 183 179 170 182 183 135 133 121 120 106 125 341 329 297 333
126 125 130 124 134 148 200 225 222 237 236 226 232 221 212 227 257 237 226 218 222 215 202 192 184 182 188 196 196 202 197 201 191 182 178 180 144 67 335 282 283 339 339
146 144 160 192 180 209 225 244 245 252 259 262 250 233 248 231 251 235 226 218 203 195 189 184 187 200 209 207 209 214 210 205 200 195 192 192 236 218 244 247 220 215 243
227 239 234 269 265 249 251 257 269 272 272 267 260 257 226 235 237 232 225 213 201 198 200 203 210 211 210 205 202 202 206 212 212 201 209 213 231 229 221 232 218 226 258
256 268 281 283 277 289 280 274 268 259 269 270 258 253 250 241 239 234 228 217 210 208 211 214 218 212 208 199 200 197 194 192 186 186 186 210 217 210 208 206 209 223 229
275 279 286 288 292 290 285 275 284 284 279 275 267 261 258 255 250 241 233 227 217 206 205 206 209 210 205 196 195 194 208 201 168 178 168 178 194 203 209 202 182 168 210
317 311 305 305 299 296 289 286 286 284 279 270 266 264 260 256 256 270 250 237 224 216 207 200 199 195 193 192 193 202 211 201 192 171 164 183 184 188 196 197 191 222 212